Date_and_time,latitude,longitude,wind_speed,RelWindDirFrom,WindDirFrom,air_pressure,air_temperature,relative_humidity,Temp,platform_speed_wrt_ground,air_pressure_at_mean_sea_level,platform_orientation
2018-11-28 23:40,50.6304583333333,-96.9807816666667,11.1,13.5,89,980.51,-4.9,100,1.01,0.0,1008.68,90.0
2018-11-28 23:50,50.630455,-96.9807783333333,11.1,14.3,91,980.58,-4.8,100,1.01,0.0,1008.75,90.0
2018-11-29 00:00,50.6304533333333,-96.9807766666667,11.6,14.3,94,980.60,-4.8,99,1.01,0.0,1008.77,311.7
2018-11-29 00:00,50.6304533333333,-96.9807766666667,11.5,11.5,95,980.67,-4.8,99,1.01,0.0,1008.84,270.0
2018-11-29 00:10,50.6304516666667,-96.980775,11.8,14.1,97,980.63,-4.8,99,1.01,0.0,1008.79,270.0
2018-11-29 00:20,50.6304516666667,-96.980775,11.3,13.8,99,980.60,-4.8,100,1.01,0.0,1008.77,270.0
2018-11-29 00:30,50.6304516666667,-96.9807766666667,11.2,13.4,98,980.59,-4.8,100,1.00,0.0,1008.76,270.0
2018-11-29 00:40,50.6304516666667,-96.9807766666667,11.3,14.2,99,980.60,-4.8,100,1.00,0.0,1008.76,270.0
2018-11-29 00:50,50.63045,-96.980775,11.2,14.1,102,980.64,-4.8,100,1.01,0.0,1008.81,270.0
2018-11-29 01:00,50.63045,-96.9807733333333,11.5,14.5,104,980.59,-4.8,100,1.01,0.0,1008.76,270.0
2018-11-29 01:10,50.6304483333333,-96.9807716666667,11.6,14.2,103,980.51,-4.8,100,1.01,0.0,1008.68,270.0
2018-11-29 01:20,50.630435,-96.980735,12.7,14.7,104,980.45,-4.8,100,1.01,0.0,1008.61,270.0
2018-11-29 01:30,50.6304416666667,-96.9807616666667,12.0,14.4,108,980.39,-4.8,100,1.01,0.0,1008.54,270.0
2018-11-29 01:40,50.6304466666667,-96.980775,12.1,13.9,109,980.40,-4.8,100,1.00,0.0,1008.55,270.0
2018-11-29 01:50,50.6304516666667,-96.9807766666667,11.3,15.2,107,980.44,-4.7,100,1.00,0.0,1008.59,270.0
2018-11-29 02:00,50.63045,-96.980775,12.5,15.2,110,980.44,-4.7,100,1.00,0.0,1008.59,90.0
2018-11-29 02:10,50.63045,-96.980775,13.1,15.8,107,980.46,-4.7,100,0.99,0.0,1008.60,90.0
2018-11-29 02:20,50.6304516666667,-96.9807733333333,14.0,18.1,108,980.41,-4.6,99,1.17,0.0,1008.55,90.0
2018-11-29 02:30,50.6304516666667,-96.9807733333333,14.5,18.4,107,980.34,-4.6,99,0.98,0.0,1008.48,90.0
2018-11-29 02:40,50.6304516666667,-96.9807716666667,14.7,17.3,108,980.27,-4.5,99,0.99,0.0,1008.40,90.0
2018-11-29 02:50,50.6304533333333,-96.98077,14.6,17.9,106,980.22,-4.6,99,1.00,0.0,1008.36,90.0
2018-11-29 03:00,50.6304483333333,-96.980795,14.8,18.4,105,980.11,-4.6,99,1.00,0.0,1008.25,253.2
2018-11-29 03:10,50.6304483333333,-96.9807766666667,14.9,17.7,105,980.09,-4.5,99,1.01,0.0,1008.22,253.2
2018-11-29 03:20,50.6304333333333,-96.98079,14.9,17.3,105,980.09,-4.6,99,1.01,0.0,1008.22,253.2
2018-11-29 03:30,50.6304466666667,-96.9807733333333,14.7,17.9,102,980.08,-4.6,100,1.01,0.0,1008.21,253.2
2018-11-29 03:40,50.6304466666667,-96.980775,14.5,17.6,101,980.04,-4.7,100,1.01,0.0,1008.17,253.2
2018-11-29 03:50,50.6304283333333,-96.9807333333333,14.3,17.3,101,980.05,-4.7,100,1.02,0.0,1008.18,253.2
2018-11-29 04:00,50.6304366666667,-96.980755,14.1,17.0,98,980.03,-4.7,100,1.02,0.0,1008.16,176.8
2018-11-29 04:10,50.6304383333333,-96.9807766666667,14.2,17.1,99,979.97,-4.7,100,1.02,0.0,1008.09,176.8
2018-11-29 04:20,50.630445,-96.980775,13.7,16.5,100,979.97,-4.7,100,1.02,0.0,1008.10,176.8
2018-11-29 04:30,50.6304416666667,-96.9807666666667,14.3,17.5,97,979.96,-4.7,100,1.02,0.0,1008.08,176.8
2018-11-29 04:40,50.6304416666667,-96.9807616666667,14.6,17.3,97,979.96,-4.7,100,1.02,0.0,1008.08,176.8
2018-11-29 04:50,50.6304433333333,-96.980765,14.5,17.7,99,979.93,-4.7,100,1.02,0.0,1008.06,176.8
2018-11-29 05:00,50.6304433333333,-96.980765,14.2,17.3,98,979.90,-4.7,100,1.02,0.0,1008.03,360.0
2018-11-29 05:10,50.6304433333333,-96.9807666666667,13.7,17.8,100,979.87,-4.7,100,1.02,0.0,1008.00,360.0
2018-11-29 05:20,50.6304433333333,-96.9807683333333,12.9,15.8,99,979.87,-4.7,100,1.01,0.0,1008.00,360.0
2018-11-29 05:30,50.6304533333333,-96.9807733333333,13.6,15.8,98,979.88,-4.7,100,1.01,0.0,1008.01,360.0
2018-11-29 05:40,50.6304466666667,-96.9807633333333,13.2,15.4,102,979.89,-4.8,100,1.01,0.0,1008.03,360.0
2018-11-29 05:50,50.6304583333333,-96.98077,13.4,16.0,101,979.90,-4.8,100,1.01,0.0,1008.03,360.0
2018-11-29 06:00,50.630445,-96.980755,13.1,16.3,100,979.87,-4.8,100,1.02,0.0,1008.01,101.8
2018-11-29 06:10,50.630445,-96.98076,13.0,15.3,102,979.86,-4.8,100,1.02,0.0,1007.99,101.8
2018-11-29 06:20,50.6304433333333,-96.980765,12.5,15.1,102,979.86,-4.8,100,1.03,0.0,1007.99,101.8
2018-11-29 06:30,50.6304316666667,-96.9807666666667,13.1,16.1,100,979.85,-4.8,100,1.03,0.0,1007.98,101.8
2018-11-29 06:40,50.6304366666667,-96.9807716666667,12.8,15.7,101,979.85,-4.8,100,1.03,0.0,1007.98,101.8
2018-11-29 06:50,50.6304383333333,-96.9807716666667,12.0,14.5,100,979.86,-4.8,100,1.02,0.0,1007.99,101.8
2018-11-29 07:00,50.6304433333333,-96.9807716666667,11.7,13.8,101,979.82,-4.8,100,1.01,0.0,1007.96,299.2
2018-11-29 07:10,50.630445,-96.9807683333333,11.6,14.3,101,979.83,-4.8,100,1.01,0.0,1007.97,299.2
2018-11-29 07:20,50.6304466666667,-96.9807666666667,11.5,13.7,105,979.83,-4.8,100,1.01,0.0,1007.96,299.2
2018-11-29 07:30,50.6304483333333,-96.9807666666667,11.7,14.4,105,979.79,-4.8,100,1.01,0.0,1007.93,299.2
2018-11-29 07:40,50.63045,-96.9807683333333,11.8,14.3,105,979.81,-4.8,100,1.01,0.0,1007.95,299.2
2018-11-29 07:50,50.63045,-96.9807683333333,11.6,14.1,103,979.82,-4.9,100,1.01,0.0,1007.96,299.2
2018-11-29 08:00,50.6304416666667,-96.9807283333333,12.3,14.8,103,979.83,-4.9,100,1.01,0.0,1007.97,90.0
2018-11-29 08:10,50.6304483333333,-96.9807733333333,11.1,13.3,104,979.82,-4.9,100,1.01,0.0,1007.97,90.0
2018-11-29 08:20,50.6304483333333,-96.980765,11.2,14.0,103,979.83,-4.8,100,1.01,0.0,1007.97,90.0
2018-11-29 08:30,50.6304466666667,-96.9807616666667,11.0,13.3,102,979.79,-4.8,100,1.01,0.0,1007.92,90.0
2018-11-29 08:40,50.6304483333333,-96.9807666666667,10.2,12.7,102,979.76,-4.8,100,1.01,0.0,1007.90,90.0
2018-11-29 08:50,50.6304483333333,-96.9807666666667,9.7,11.6,101,979.73,-4.8,100,1.01,0.0,1007.86,90.0
2018-11-29 09:00,50.63045,-96.9807683333333,10.6,12.7,103,979.66,-4.8,100,1.01,0.0,1007.80,360.0
2018-11-29 09:10,50.6304483333333,-96.9807683333333,10.0,12.4,101,979.65,-4.8,100,1.01,0.0,1007.78,360.0
2018-11-29 09:20,50.63044,-96.9807516666667,10.4,12.2,101,979.58,-4.8,100,1.00,0.0,1007.71,360.0
2018-11-29 09:30,50.6304433333333,-96.98077,10.3,12.5,104,979.52,-4.8,100,1.01,0.0,1007.65,360.0
2018-11-29 09:40,50.63046,-96.9807583333333,9.8,11.7,104,979.47,-4.8,100,1.01,0.0,1007.60,360.0
2018-11-29 09:50,50.6304416666667,-96.9807666666667,9.8,11.9,104,979.44,-4.8,100,1.01,0.0,1007.58,360.0
2018-11-29 10:00,50.6304416666667,-96.9807683333333,9.3,11.2,102,979.45,-4.8,100,1.02,0.0,1007.58,90.0
2018-11-29 10:10,50.6304466666667,-96.9807683333333,9.2,11.4,103,979.46,-4.8,100,1.02,0.0,1007.59,90.0
2018-11-29 10:20,50.6304483333333,-96.9807733333333,9.1,10.5,105,979.45,-4.8,100,1.02,0.0,1007.58,90.0
2018-11-29 10:30,50.6304533333333,-96.9807916666667,8.6,9.9,105,979.42,-4.8,100,1.02,0.0,1007.55,90.0
2018-11-29 10:40,50.63044,-96.9807883333333,8.7,10.8,104,979.40,-4.8,100,1.02,0.0,1007.53,90.0
2018-11-29 10:50,50.63045,-96.9807733333333,8.6,10.0,103,979.35,-4.8,100,1.02,0.0,1007.48,90.0
2018-11-29 11:00,50.6304533333333,-96.9807783333333,8.1,9.4,103,979.32,-4.8,100,1.02,0.0,1007.44,287.3
2018-11-29 11:10,50.630455,-96.98078,7.5,9.4,101,979.25,-4.8,100,1.02,0.0,1007.38,287.3
2018-11-29 11:20,50.6304466666667,-96.9807883333333,7.5,8.7,98,979.20,-4.9,100,1.02,0.0,1007.32,287.3
2018-11-29 11:30,50.63045,-96.9807766666667,7.5,9.2,99,979.23,-4.9,100,1.02,0.0,1007.36,287.3
2018-11-29 11:40,50.6304183333333,-96.9807683333333,6.6,8.1,103,979.31,-4.9,100,1.02,0.0,1007.44,287.3
2018-11-29 11:50,50.6304583333333,-96.9807966666667,6.2,7.8,105,979.32,-4.9,100,1.02,0.0,1007.45,287.3
2018-11-29 12:00,50.63045,-96.980785,5.9,7.3,103,979.28,-4.9,100,1.02,0.0,1007.41,270.0
2018-11-29 12:10,50.6304516666667,-96.980785,5.6,7.0,104,979.23,-4.9,100,1.01,0.0,1007.35,270.0
2018-11-29 12:20,50.6304333333333,-96.9807766666667,6.2,7.4,107,979.23,-4.9,100,1.01,0.0,1007.36,270.0
2018-11-29 12:30,50.630445,-96.9807766666667,6.2,7.8,113,979.29,-4.8,100,1.01,0.0,1007.41,270.0
2018-11-29 12:40,50.6304433333333,-96.9807733333333,5.6,7.3,114,979.28,-4.8,100,1.02,0.0,1007.40,270.0
2018-11-29 12:50,50.6304433333333,-96.9807716666667,6.5,7.8,104,979.24,-4.7,100,1.02,0.0,1007.35,270.0
2018-11-29 13:00,50.6304416666667,-96.9807683333333,6.4,7.7,103,979.25,-4.6,100,1.02,0.0,1007.37,0.0
2018-11-29 13:10,50.63044,-96.9807716666667,6.5,8.3,105,979.25,-4.6,100,1.02,0.0,1007.36,0.0
2018-11-29 13:20,50.6304316666667,-96.9807866666667,5.9,7.9,110,979.27,-4.6,100,1.02,0.0,1007.39,0.0
2018-11-29 13:30,50.6304266666667,-96.98078,6.8,8.5,111,979.27,-4.6,100,1.02,0.0,1007.38,0.0
2018-11-29 13:40,50.6304283333333,-96.9807816666667,5.7,6.9,112,979.27,-4.6,100,1.02,0.0,1007.38,0.0
2018-11-29 13:50,50.6304316666667,-96.9807833333333,6.1,7.8,115,979.23,-4.5,100,1.02,0.0,1007.35,0.0
2018-11-29 14:00,50.6304433333333,-96.9807716666667,6.4,7.5,115,979.22,-4.5,100,1.03,0.0,1007.33,143.4
2018-11-29 14:10,50.6304433333333,-96.9807733333333,6.4,7.6,115,979.29,-4.5,100,1.03,0.0,1007.40,143.4
2018-11-29 14:20,50.6304383333333,-96.980775,5.3,7.6,118,979.41,-4.4,100,1.02,0.0,1007.51,143.4
2018-11-29 14:30,50.63044,-96.98078,5.5,7.4,119,979.47,-4.4,100,1.02,0.0,1007.58,143.4
2018-11-29 14:40,50.63044,-96.9807766666667,6.0,7.4,119,979.46,-4.4,100,1.02,0.0,1007.56,143.4
2018-11-29 14:50,50.6304383333333,-96.9807766666667,5.3,6.4,122,979.48,-4.4,100,1.02,0.0,1007.57,143.4
2018-11-29 15:00,50.6304383333333,-96.9807733333333,4.9,6.8,126,979.51,-4.6,100,1.03,0.0,1007.61,143.4
2018-11-29 15:10,50.6304666666667,-96.98079,4.3,5.8,127,979.54,-4.6,100,1.03,0.0,1007.65,143.4
2018-11-29 15:20,50.630445,-96.9807633333333,3.7,4.9,125,979.55,-4.5,100,1.03,0.0,1007.65,143.4
2018-11-29 15:30,50.63044,-96.9807633333333,3.6,4.3,126,979.57,-4.5,100,1.03,0.0,1007.67,143.4
2018-11-29 15:40,50.630445,-96.980765,3.3,4.3,125,979.65,-4.4,100,1.03,0.0,1007.75,143.4
2018-11-29 15:50,50.630445,-96.98077,2.8,3.4,122,979.72,-4.4,100,1.04,0.0,1007.81,143.4
2018-11-29 16:00,50.630445,-96.9807666666667,2.2,2.9,127,979.77,-4.5,100,1.04,0.0,1007.88,0.0
2018-11-29 16:10,50.6304416666667,-96.9807683333333,1.9,2.9,117,979.82,-4.2,100,1.04,0.0,1007.91,0.0
2018-11-29 16:20,50.6304333333333,-96.9807983333333,2.2,2.8,127,979.86,-4.4,100,1.03,0.0,1007.96,0.0
2018-11-29 16:30,50.6304466666667,-96.98077,3.0,3.9,137,979.88,-4.7,100,1.03,0.0,1007.99,0.0
2018-11-29 16:40,50.6304416666667,-96.9807666666667,3.5,4.4,126,979.90,-4.2,100,1.03,0.0,1007.98,0.0
2018-11-29 16:50,50.6304366666667,-96.98078,3.1,4.1,142,979.92,-4.6,100,1.02,0.0,1008.04,0.0
2018-11-29 17:00,50.6304366666667,-96.980775,3.0,4.1,130,979.89,-4.1,100,1.02,0.0,1007.98,142.0
2018-11-29 17:10,50.6304366666667,-96.9807766666667,3.0,4.1,130,979.79,-4.0,100,1.03,0.0,1007.87,142.0
2018-11-29 17:20,50.6304383333333,-96.9807766666667,3.0,3.6,134,979.76,-4.2,100,1.03,0.0,1007.85,142.0
2018-11-29 17:30,50.63044,-96.980775,2.9,3.5,133,979.69,-4.0,100,1.04,0.0,1007.76,142.0
2018-11-29 17:40,50.6304383333333,-96.980775,2.6,3.4,132,979.65,-3.9,100,1.05,0.0,1007.71,142.0
2018-11-29 17:50,50.6304383333333,-96.9807733333333,2.2,3.2,114,979.61,-3.2,100,1.05,0.0,1007.64,142.0
2018-11-29 18:00,50.63044,-96.9807716666667,2.3,3.0,100,979.57,-2.9,100,1.05,0.0,1007.57,0.0
2018-11-29 18:10,50.63044,-96.9807716666667,2.1,2.8,94,979.53,-2.3,99,1.05,0.0,1007.51,0.0
2018-11-29 18:20,50.63044,-96.9807716666667,1.9,2.4,96,979.46,-1.9,99,1.05,0.0,1007.43,0.0
2018-11-29 18:30,50.63044,-96.9807716666667,1.5,2.3,98,979.47,-1.6,99,1.05,0.0,1007.40,0.0
2018-11-29 18:40,50.63044,-96.9807716666667,1.2,1.7,95,979.50,-1.0,99,1.05,0.0,1007.41,0.0
2018-11-29 18:50,50.63044,-96.9807716666667,1.4,1.8,101,979.54,-1.2,99,1.05,0.0,1007.44,0.0
2018-11-29 19:00,50.63044,-96.9807716666667,1.2,1.8,101,979.54,-0.9,99,1.06,0.0,1007.43,270.0
2018-11-29 19:10,50.63044,-96.9807716666667,0.6,1.2,95,979.55,-0.2,94,1.06,0.0,1007.40,270.0
2018-11-29 19:20,50.63044,-96.9807716666667,1.2,2.6,113,979.53,-0.7,95,1.06,0.0,1007.40,270.0
2018-11-29 19:30,50.63044,-96.9807716666667,1.8,2.6,113,979.45,-1.2,98,1.06,0.0,1007.33,270.0
2018-11-29 19:40,50.63044,-96.9807716666667,0.8,2.7,120,979.51,-1.4,98,1.06,0.0,1007.38,270.0
2018-11-29 19:50,50.63044,-96.9807716666667,0.5,1.9,68,979.52,-1.3,95,1.05,0.0,1007.37,270.0
2018-11-29 20:00,50.63044,-96.9807716666667,1.1,3.6,273,979.50,-1.6,92,1.05,0.0,1007.33,360.0
2018-11-29 20:10,50.63044,-96.98077,1.4,2.2,36,979.46,-2.2,97,1.04,0.0,1007.30,360.0
2018-11-29 20:20,50.63044,-96.98077,2.2,2.9,49,979.45,-2.6,99,1.04,0.0,1007.29,360.0
2018-11-29 20:30,50.6304216666667,-96.9807766666667,1.8,2.4,61,979.45,-2.6,99,1.03,0.0,1007.26,360.0
2018-11-29 20:40,50.6304283333333,-96.98077,2.5,3.0,67,979.48,-2.7,99,1.03,0.0,1007.31,360.0
2018-11-29 20:50,50.6304433333333,-96.9807733333333,2.7,3.2,69,979.55,-2.7,99,1.03,0.0,1007.37,360.0
2018-11-29 21:00,50.6304466666667,-96.9807683333333,2.1,3.1,76,979.64,-2.7,99,1.03,0.0,1007.42,48.3
2018-11-29 21:10,50.6304433333333,-96.9807683333333,1.7,2.4,80,979.69,-2.5,99,1.04,0.0,1007.49,48.3
2018-11-29 21:20,50.630445,-96.98077,1.5,2.0,86,979.78,-2.5,99,1.04,0.0,1007.61,48.3
2018-11-29 21:30,50.630445,-96.9807716666667,1.3,1.8,88,979.92,-2.6,99,1.05,0.0,1007.76,48.3
2018-11-29 21:40,50.630445,-96.9807716666667,1.8,2.2,117,980.01,-2.9,100,1.05,0.0,1007.86,48.3
2018-11-29 21:50,50.630445,-96.9807733333333,1.1,1.7,98,980.09,-3.0,100,1.04,0.0,1007.97,48.3
2018-11-29 22:00,50.6304416666667,-96.98078,1.9,2.4,102,980.05,-3.0,100,1.04,0.0,1007.96,270.0
2018-11-29 22:10,50.6304366666667,-96.9807783333333,1.5,1.8,89,980.11,-3.1,100,1.04,0.0,1008.04,270.0
2018-11-29 22:20,50.6304366666667,-96.980775,2.0,2.4,107,980.17,-3.2,100,1.05,0.0,1008.12,270.0
2018-11-29 22:30,50.6304383333333,-96.98078,1.4,2.1,126,980.25,-3.6,100,1.05,0.0,1008.22,270.0
2018-11-29 22:40,50.6304383333333,-96.9807816666667,0.9,1.8,169,980.30,-4.2,100,1.05,0.0,1008.31,270.0
2018-11-29 22:50,50.6304383333333,-96.9807833333333,0.8,1.4,170,980.41,-4.3,100,1.04,0.0,1008.43,270.0
2018-11-29 23:00,50.63044,-96.9807833333333,0.0,0.5,0,980.55,-4.2,100,1.03,0.0,1008.55,270.0
2018-11-29 23:10,50.6304416666667,-96.9807833333333,1.2,2.8,349,980.64,-3.9,100,1.03,0.0,1008.64,270.0
2018-11-29 23:20,50.6304416666667,-96.9807833333333,0.0,0.1,0,980.62,-3.8,100,1.03,0.0,1008.61,270.0
2018-11-29 23:30,50.6304416666667,-96.9807833333333,0.1,1.0,35,980.61,-3.8,100,1.04,0.0,1008.62,270.0
2018-11-29 23:40,50.6304466666667,-96.9807933333333,1.1,1.4,44,980.58,-3.7,100,1.05,0.0,1008.58,270.0
2018-11-29 23:50,50.6304466666667,-96.98079,1.3,1.6,30,980.51,-3.7,100,1.06,0.0,1008.51,270.0
